Location: La Chapelle
(48.3135°N, 1.3085°W)
Time: 01:00:10
(UTC+00:00)

Meteor 1-19 Rocket - Pass Details

Date: 03 March 2021
Orbit: 807 x 928 km, 81.2° (Epoch: 12 April)

Event Time Altitude Azimuth Distance (km) Brightness Sun altitude
Rises 18:40:17 0° 348° (NNW) 3,571 7.6 -8.7°
Reaches altitude 10° 18:42:49 10° 350° (N) 2,614 6.9 -9.1°
Maximum altitude 18:48:48 80° 78° (ENE) 916 4.3 -10.1°
Drops below altitude 10° 18:54:34 10° 165° (SSE) 2,522 6.5 -11.1°
Sets 18:56:58 0° 167° (SSE) 3,438 7.2 -11.5°
